CZ-6A DEB, 54984

Orbit data source: Space-Track

CZ-6A DEB, 54984 is space debris in SSO originally from a launch on Fri, 11 Nov 2022 UTC launched from the Taiyaun Space Center, China (TSC). Debris objects in space refer to the collection of defunct objects orbiting the Earth. Examples of debris include non-operational satellites, rocket bodies, and fragments generated from explosions, collisions, or faulty payload assembly.

Loading next visibility...
Identifier
54984, 2022-151TZ
Orbit
SSO
Country
Flag of CNCN / PRC
Related business
Manufacturer
SAST
Mission
Spacecraft
Bus & Motor
Unknown
Mass
Unknown
Launch date (UTC)
2022-11-11 (4 years ago)
Launch vehicle
Unknown
Launch site
Taiyaun Space Center, China (TSC)
Object type
Payload
Rocket body
Debris
Shape & HBR
Unknown shape, 0.1 m
Radar Cross Section
Medium (>0.1 m² and <1 m²)

Expand to show TLE details & history
Last TLE update: 2 days ago

TLE from 2 days ago
0 CZ-6A DEB
1 54984U 22151TZ  26171.24993816  .00002382  00000-0  20454-2 0  9992
2 54984  98.9464 109.5748 0216444 173.3568 187.0536 13.77523455179650
Epoch: 2026-06-20T05:59Z
TLE epoch observation values (Epoch: 2026-06-20T05:59:54.657Z)
Latitude
-0.00001°
Longitude
111.1298°
Altitude
1,133.515 km
Speed
7.207 km/s
True Right ascension
07h 18m 17s
True Declination
0° 00' 00"
Sunlit
Object was in daylight at epoch
Visualization orbit readout
Latitude
Unknown
Longitude
Unknown
Altitude
Unknown
Speed
Unknown
Apparent Right ascension
Unknown
Apparent Declination
Unknown
Sunlit
N/A
Visualization observer readout
Local Sidereal Time
21:27:07
Azimuth
Unknown
Elevation
Unknown
Doppler factor
Unknown
Orbital elements
Apogee altitude
1,128.953 km
Perigee altitude
810.865 km
Semi-major axis
7,348.046 km
Eccentricity
0.02164
Inclination
98.9464°
RAAN
109.5748°
Arg. of periapsis
173.3568°
True anomaly
186.757°
Mean anomaly
187.0536°
Eccentric anomaly
186.90452°
Mean motion
3.44576 °/min
Orbital period
104.48 mins
BSTAR
0.0020454
Loading maneuver chart data...
Computing Atmospheric mass density...
Loading historical data...
Loading historical data...
Loading historical data...
Loading historical data...
Loading historical data...
Loading historical data...
Loading historical data...

Documentation

Showing up to 5 results
|